Location: Navajo
(48.7922°N, 105.0603°W)
Time: 05:44:21
(UTC+00:00)

DUCHIFAT 1 - Pass Details

Date: 27 June 2022
Orbit: 580 x 596 km, 98.0° (Epoch: 16 August)

Event Time Altitude Azimuth Distance (km) Brightness Sun altitude
Rises 09:55:36 0° 11° (NNE) 2,840 ? -8.3°
Reaches altitude 10° 09:57:47 10° 9° (N) 1,937 ? -8.1°
Maximum altitude 10:01:58 69° 287° (WNW) 641 ? -7.6°
Drops below altitude 10° 10:06:07 10° 204° (SSW) 1,929 ? -7.2°
Enters shadow 10:06:34 - 204° (SSW) 2,114 ? -7.1°
